TimeEST,TemperatureF,Dew PointF,Humidity,Sea Level PressureIn,VisibilityMPH,Wind Direction,Wind SpeedMPH,Gust SpeedMPH,PrecipitationIn,Events,Conditions,WindDirDegrees,DateUTC
12:51 AM,43.0,27.0,53,30.18,10.0,Variable,5.8,-,N/A,,Clear,0,2011-12-18 05:51:00
1:51 AM,43.0,27.0,53,30.18,10.0,NNW,6.9,-,N/A,,Clear,330,2011-12-18 06:51:00
2:51 AM,43.0,28.0,56,30.19,10.0,NNW,10.4,17.3,N/A,,Clear,340,2011-12-18 07:51:00
3:51 AM,43.0,28.0,56,30.19,10.0,Variable,5.8,-,N/A,,Clear,0,2011-12-18 08:51:00
4:51 AM,42.1,28.0,58,30.20,10.0,North,6.9,-,N/A,,Clear,350,2011-12-18 09:51:00
5:51 AM,42.1,28.0,58,30.22,10.0,Variable,5.8,-,N/A,,Clear,0,2011-12-18 10:51:00
6:51 AM,41.0,27.0,57,30.22,10.0,North,8.1,-,N/A,,Clear,360,2011-12-18 11:51:00
7:51 AM,42.1,28.0,58,30.24,10.0,North,6.9,-,N/A,,Clear,350,2011-12-18 12:51:00
8:51 AM,44.1,28.0,53,30.26,10.0,NNW,8.1,-,N/A,,Clear,340,2011-12-18 13:51:00
9:51 AM,45.0,28.0,52,30.28,10.0,Variable,6.9,-,N/A,,Clear,0,2011-12-18 14:51:00
10:51 AM,46.0,28.9,51,30.28,10.0,NNW,6.9,-,N/A,,Clear,340,2011-12-18 15:51:00
11:51 AM,46.9,28.0,48,30.27,10.0,North,8.1,-,N/A,,Partly Cloudy,350,2011-12-18 16:51:00
12:51 PM,46.9,27.0,46,30.26,10.0,Variable,4.6,-,N/A,,Scattered Clouds,0,2011-12-18 17:51:00
1:51 PM,48.0,27.0,44,30.26,10.0,Variable,6.9,23.0,N/A,,Partly Cloudy,0,2011-12-18 18:51:00
2:51 PM,46.9,27.0,46,30.25,10.0,Variable,6.9,-,N/A,,Partly Cloudy,0,2011-12-18 19:51:00
3:51 PM,46.0,26.1,46,30.26,10.0,Variable,5.8,-,N/A,,Partly Cloudy,0,2011-12-18 20:51:00
4:51 PM,44.1,27.0,51,30.28,10.0,North,5.8,-,N/A,,Mostly Cloudy,10,2011-12-18 21:51:00
5:51 PM,44.1,26.1,49,30.32,10.0,NNW,6.9,-,N/A,,Mostly Cloudy,340,2011-12-18 22:51:00
6:51 PM,44.1,26.1,49,30.35,10.0,Variable,3.5,-,N/A,,Scattered Clouds,0,2011-12-18 23:51:00
7:51 PM,44.1,27.0,51,30.37,10.0,Variable,4.6,-,N/A,,Clear,0,2011-12-19 00:51:00
8:51 PM,44.1,27.0,51,30.38,10.0,Variable,6.9,-,N/A,,Clear,0,2011-12-19 01:51:00
9:51 PM,43.0,28.0,56,30.39,10.0,North,6.9,-,N/A,,Clear,10,2011-12-19 02:51:00
10:51 PM,43.0,25.0,49,30.38,10.0,NNE,8.1,-,N/A,,Clear,20,2011-12-19 03:51:00
11:51 PM,43.0,26.1,51,30.38,10.0,Variable,5.8,-,N/A,,Clear,0,2011-12-19 04:51:00